Theta_e
312 311 311 311 311 312 312 312 315 316 316 315 315 313 312 310 311 310 306 304 304 306
312 313 313 313 312 312 313 318 316 315 314 313 312 311 309 308 310 309 305 305 305 308
314 314 314 313 313 314 314 313 312 311 311 311 310 309 307 307 309 308 308 307 304 305
314 315 314 315 314 311 310 310 310 310 309 309 309 308 306 306 307 305 304 304 305 306
314 316 315 313 310 309 309 311 310 309 308 308 309 305 304 304 304 303 303 304 303 303
315 313 313 312 311 312 310 311 310 307 306 306 304 303 302 302 302 302 303 302 302 302
314 312 311 311 313 312 309 307 306 305 305 303 303 302 301 300 299 299 300 301 302 302
313 313 313 310 309 308 307 304 304 304 303 302 302 302 299 298 297 297 298 298 299 300
314 312 309 308 305 303 300 300 301 302 302 300 303 302 302 300 295 296 295 294 296 297
310 308 305 302 300 299 298 298 298 299 300 298 298 300 299 301 294 294 293 293 294 297
305 302 300 299 298 298 296 296 297 297 297 297 299 300 298 298 293 293 293 294 295 295
303 301 299 298 297 297 296 295 296 297 297 295 295 299 297 295 293 293 293 295 296 297
302 300 298 298 299 297 294 293 297 297 296 300 294 297 297 296 293 291 292 293 295 298
300 299 299 299 297 293 292 291 293 293 291 293 295 293 296 296 292 291 291 292 293 295
Wind_Speed
7 5 5 5 4 3 2 1 3 3 4 6 6 5 5 3 3 4 4 6 5 2
7 7 6 6 4 3 3 3 5 6 6 6 6 6 5 4 4 4 4 4 5 3
8 7 6 5 5 6 5 5 5 5 5 5 5 5 5 4 4 5 3 3 4 4
6 7 7 6 6 6 5 5 5 4 4 4 4 5 5 5 5 5 5 5 6 6
7 8 9 7 6 6 7 4 5 3 4 5 5 5 6 6 6 6 6 7 5 6
8 5 7 7 6 5 5 5 4 5 5 5 5 5 6 5 6 6 5 5 6 6
8 8 8 6 6 4 6 5 4 4 4 4 4 4 5 5 6 5 5 5 6 6
6 7 6 6 7 3 6 4 3 4 3 3 4 4 6 6 6 6 7 7 7 6
8 7 7 4 6 5 5 5 4 4 3 3 3 6 8 7 6 6 5 6 7 7
9 9 6 5 6 5 4 3 3 2 0 2 2 6 8 9 4 4 5 6 6 7
9 8 6 6 5 3 2 2 2 2 3 2 2 5 6 8 6 5 6 6 6 6
9 7 6 6 4 2 2 2 1 2 4 3 2 5 7 6 5 6 7 6 6 6
8 8 7 6 5 2 3 3 2 4 3 4 4 6 7 5 4 6 5 6 6 11
7 7 7 6 4 4 5 5 5 4 4 4 4 5 7 7 3 3 4 4 6 6
Wind_Direction
136 128 146 165 157 154 158 111 19 30 30 25 28 24 17 356 354 56 24 21 3 314
138 145 156 160 141 134 83 64 46 44 45 35 32 29 14 15 30 28 18 11 355 331
157 153 145 133 112 96 96 82 66 49 39 24 16 22 27 20 7 23 4 359 2 349
156 133 123 115 111 103 92 82 75 71 56 31 14 19 21 4 19 13 360 351 356 346
139 138 124 113 112 112 110 121 99 62 50 30 26 27 26 16 3 3 351 338 336 350
110 112 113 120 118 126 93 72 45 48 38 45 54 39 23 19 3 353 348 328 341 338
128 138 129 120 102 102 104 79 58 46 59 54 58 45 21 12 1 350 356 345 355 346
125 124 108 94 101 102 86 81 84 86 61 60 52 31 18 7 3 7 4 356 347 337
130 125 117 140 110 101 90 71 56 45 49 51 35 25 20 28 12 12 5 341 330 328
133 127 123 112 102 90 79 77 70 42 37 80 27 25 16 23 16 7 347 341 339 336
123 123 120 107 97 88 66 81 95 70 78 104 25 19 12 25 10 358 344 340 330 327
131 123 113 110 126 118 101 57 117 121 101 89 4 10 21 22 5 356 338 330 330 328
135 135 143 151 143 100 71 41 96 95 57 67 26 357 1 24 5 346 331 328 323 323
137 141 149 138 114 111 94 70 62 62 21 33 23 3 10 17 6 330 325 329 333 329